Weather History for Linden, NJ

Change the Weather History Date:

Sunday, March 2, 2014

  Actual Average (KEWR) Record (KEWR)
Temperature  
Mean Temperature 37 °F 38 °F  
Max Temperature 41 °F 46 °F 78 °F (1972)
Min Temperature 33 °F 30 °F 12 °F (1950)
Degree Days  
Heating Degree Days 28 27  
Month to date heating degree days 54  
Since 1 July heating degree days 3689  
Cooling Degree Days 0 0  
Month to date cooling degree days 0  
Year to date cooling degree days 0  
Moisture  
Dew Point 23 °F    
Average Humidity 59    
Maximum Humidity 85    
Minimum Humidity 43    
Precipitation  
Precipitation 0.00 in 0.12 in 1.86 in (2007)
Month to date precipitation 0.24  
Year to date precipitation 6.66  
Snow  
Snow 0.00 in 0.30 in 5.30 in (2009)
Month to date snowfall 0.5  
Since 1 July snowfall 23.5  
Snow Depth -    
Sea Level Pressure  
Sea Level Pressure 30.08 in    
Wind  
Wind Speed 3 mph (NW)    
Max Wind Speed 10 mph    
Max Gust Speed 16 mph    
Visibility 10 miles    
Events Rain , Snow    
T = Trace of Precipitation, MM = Missing Value Source: NWS Daily Summary

Daily Weather History Graph

Daily Weather History Graph

Search for Another Location

Airport:

Trip Planner

Search our weather history database for the weather conditions in past years. The results will help you decide how hot, cold, wet, or windy it might be!

Date:

Astronomy

Mar. 02, 2014 Rise Set
Actual Time 6:29 AM EST 5:49 PM EST
Civil Twilight 6:01 AM EST 6:16 PM EST
Nautical Twilight 5:30 AM EST 6:48 PM EST
Astronomical Twilight 4:58 AM EST 7:20 PM EST
Moon 6:58 AM EST (3/2) 7:43 PM EST (3/2)
Length of Visible Light 12h 14m
Length of Day
11h 20m
Waxing Crescent, 3% of the Moon is Illuminated
Mar 2
Waxing Crescent
Mar 8
First Quarter
Mar 16
Full
Mar 23
Last Quarter
Mar 30
New

Hourly Weather History & Observations

Time (EST) Temp. Windchill Dew Point Humidity Pressure Visibility Wind Dir Wind Speed Gust Speed Precip Events Conditions
12:15 AM 35.6 °F - 15.1 °F 43% 30.18 in 10.0 mi Calm Calm - N/A   Overcast
12:35 AM 34.3 °F - 15.8 °F 47% 30.16 in 10.0 mi Calm Calm - N/A   Scattered Clouds
12:55 AM 34.0 °F - 15.8 °F 47% 30.16 in 10.0 mi Calm Calm - N/A   Clear
1:15 AM 34.0 °F 31.0 °F 15.8 °F 47% 30.16 in 10.0 mi West 3.5 mph - N/A   Clear
1:35 AM 34.2 °F 31.2 °F 15.8 °F 47% 30.16 in 10.0 mi WNW 3.5 mph - N/A   Scattered Clouds
1:55 AM 34.3 °F 31.4 °F 16.0 °F 47% 30.16 in 10.0 mi WSW 3.5 mph - N/A   Overcast
2:15 AM 33.1 °F - 16.5 °F 51% 30.15 in 10.0 mi Calm Calm - N/A   Scattered Clouds
2:35 AM 34.0 °F - 16.9 °F 50% 30.14 in 10.0 mi Calm Calm - N/A   Scattered Clouds
2:55 AM 33.8 °F - 17.6 °F 52% 30.13 in 10.0 mi Calm Calm - N/A   Overcast
3:15 AM 34.2 °F 30.0 °F 18.5 °F 53% 30.12 in 10.0 mi West 4.6 mph - N/A   Overcast
3:35 AM 34.3 °F 30.2 °F 19.0 °F 54% 30.13 in 10.0 mi West 4.6 mph - N/A   Overcast
3:55 AM 34.7 °F 29.6 °F 19.4 °F 54% 30.12 in 10.0 mi West 5.8 mph - N/A   Overcast
4:15 AM 34.7 °F 30.6 °F 20.1 °F 55% 30.12 in 10.0 mi West 4.6 mph - N/A   Overcast
4:35 AM 34.7 °F - 21.2 °F 58% 30.10 in 10.0 mi Calm Calm - N/A   Overcast
4:55 AM 35.1 °F 32.2 °F 22.1 °F 59% 30.11 in 10.0 mi West 3.5 mph - N/A   Overcast
5:15 AM 35.6 °F 31.7 °F 22.1 °F 58% 30.11 in 10.0 mi West 4.6 mph - N/A   Overcast
5:35 AM 35.6 °F 32.8 °F 22.1 °F 58% 30.08 in 10.0 mi South 3.5 mph - N/A   Overcast
5:55 AM 35.6 °F - 23.5 °F 62% 30.09 in 10.0 mi Calm Calm - N/A   Overcast
6:15 AM 36.3 °F 32.5 °F 23.7 °F 60% 30.10 in 10.0 mi WNW 4.6 mph - N/A   Overcast
6:35 AM 35.6 °F 31.7 °F 24.1 °F 63% 30.10 in 10.0 mi West 4.6 mph - N/A   Overcast
6:55 AM 36.1 °F - 23.9 °F 61% 30.10 in 10.0 mi Calm Calm - N/A   Overcast
7:15 AM 35.6 °F - 24.6 °F 64% 30.10 in 10.0 mi Calm Calm - N/A   Overcast
7:35 AM 35.6 °F - 24.8 °F 65% 30.09 in 10.0 mi Calm Calm - N/A   Overcast
7:55 AM 35.6 °F - 24.3 °F 63% 30.10 in 10.0 mi Calm Calm - N/A   Overcast
8:15 AM 35.6 °F - 23.7 °F 62% 30.10 in 10.0 mi Calm Calm - N/A   Overcast
8:35 AM 36.0 °F - 23.4 °F 60% 30.10 in 10.0 mi Calm Calm - N/A   Overcast
8:55 AM 36.5 °F 33.9 °F 23.4 °F 59% 30.11 in 10.0 mi West 3.5 mph - N/A   Overcast
9:15 AM 36.9 °F - 23.0 °F 57% 30.11 in 10.0 mi Calm Calm - N/A   Overcast
9:35 AM 37.2 °F 34.7 °F 22.8 °F 56% 30.12 in 10.0 mi WNW 3.5 mph - N/A   Overcast
9:55 AM 37.0 °F 34.5 °F 23.7 °F 59% 30.11 in 10.0 mi West 3.5 mph - N/A   Overcast
10:15 AM 37.4 °F 34.9 °F 22.6 °F 55% 30.10 in 10.0 mi West 3.5 mph - N/A   Overcast
10:35 AM 37.6 °F 35.1 °F 22.5 °F 54% 30.10 in 10.0 mi West 3.5 mph - N/A   Overcast
10:55 AM 37.8 °F 34.2 °F 23.4 °F 56% 30.09 in 10.0 mi NW 4.6 mph - N/A   Overcast
11:15 AM 37.9 °F 34.4 °F 23.4 °F 56% 30.09 in 10.0 mi NW 4.6 mph - N/A   Overcast
11:35 AM 38.8 °F 35.4 °F 22.8 °F 53% 30.09 in 10.0 mi NW 4.6 mph - N/A   Overcast
11:55 AM 40.3 °F 37.1 °F 21.9 °F 48% 30.08 in 10.0 mi NNW 4.6 mph - N/A   Overcast
12:15 PM 41.7 °F 38.8 °F 22.3 °F 46% 30.06 in 10.0 mi North 4.6 mph - N/A   Mostly Cloudy
12:35 PM 41.7 °F - 22.3 °F 46% 30.04 in 10.0 mi Calm Calm - N/A   Scattered Clouds
12:55 PM 41.9 °F 40.0 °F 22.1 °F 45% 30.03 in 10.0 mi North 3.5 mph - N/A   Mostly Cloudy
1:15 PM 41.7 °F 38.8 °F 22.6 °F 47% 30.03 in 10.0 mi North 4.6 mph - N/A   Overcast
1:35 PM 41.7 °F 39.8 °F 23.0 °F 47% 30.01 in 10.0 mi NNW 3.5 mph - N/A   Overcast
1:55 PM 41.4 °F 38.4 °F 23.5 °F 49% 30.01 in 10.0 mi North 4.6 mph - N/A   Overcast
2:15 PM 41.0 °F 38.0 °F 23.7 °F 50% 30.02 in 10.0 mi NW 4.6 mph - N/A   Overcast
2:35 PM 41.0 °F - 24.3 °F 51% 30.02 in 10.0 mi Calm Calm - N/A   Overcast
2:55 PM 41.2 °F 37.3 °F 24.4 °F 51% 30.02 in 10.0 mi NNW 5.8 mph - N/A   Overcast
3:15 PM 41.4 °F 37.6 °F 24.6 °F 51% 30.01 in 10.0 mi North 5.8 mph - N/A   Overcast
3:35 PM 41.9 °F 37.5 °F 25.2 °F 52% 30.02 in 10.0 mi NNW 6.9 mph - N/A   Overcast
3:55 PM 41.9 °F 39.0 °F 25.0 °F 51% 30.02 in 10.0 mi NNW 4.6 mph - N/A   Mostly Cloudy
4:15 PM 41.7 °F 36.7 °F 26.4 °F 55% 30.02 in 10.0 mi NNW 8.1 mph - N/A   Overcast
4:35 PM 40.6 °F 36.0 °F 27.1 °F 59% 30.03 in 10.0 mi NNE 6.9 mph - N/A Rain Light Rain
4:55 PM 38.8 °F 34.6 °F 28.6 °F 67% 30.04 in 10.0 mi North 5.8 mph - N/A Rain Light Rain
5:15 PM 37.2 °F 30.6 °F 30.0 °F 75% 30.05 in 7.0 mi NW 9.2 mph - N/A   Overcast
5:35 PM 36.5 °F 30.3 °F 30.2 °F 78% 30.04 in 7.0 mi NNW 8.1 mph - N/A   Overcast
5:55 PM 35.6 °F 30.7 °F 30.2 °F 81% 30.05 in 5.0 mi NNW 5.8 mph - N/A Snow Light Snow
6:15 PM 35.2 °F 32.4 °F 31.1 °F 85% 30.05 in 5.0 mi NW 3.5 mph - N/A   Overcast
6:35 PM 35.1 °F - 31.1 °F 85% 30.05 in 10.0 mi Calm Calm - N/A Rain Light Rain
6:55 PM 35.6 °F - 30.7 °F 82% 30.05 in 10.0 mi Calm Calm - N/A   Light Drizzle
7:15 PM 35.6 °F - 30.7 °F 82% 30.05 in 10.0 mi Calm Calm - N/A   Overcast
7:35 PM 35.6 °F - 30.9 °F 83% 30.03 in 10.0 mi Calm Calm - N/A   Overcast
7:55 PM 35.6 °F 32.8 °F 31.1 °F 84% 30.03 in 10.0 mi NW 3.5 mph - N/A   Overcast
8:15 PM 35.6 °F 31.7 °F 31.5 °F 85% 30.04 in 10.0 mi WNW 4.6 mph - N/A   Overcast
8:35 PM 35.6 °F 31.7 °F 31.1 °F 84% 30.04 in 10.0 mi WNW 4.6 mph - N/A   Overcast
8:55 PM 35.6 °F 31.7 °F 31.1 °F 84% 30.04 in 10.0 mi NW 4.6 mph - N/A   Overcast
9:15 PM 35.6 °F 30.7 °F 31.1 °F 84% 30.04 in 10.0 mi NW 5.8 mph - N/A   Overcast
9:35 PM 35.6 °F 30.7 °F 28.2 °F 75% 30.04 in 10.0 mi NNW 5.8 mph - N/A   Overcast
9:55 PM 35.8 °F 30.9 °F 21.9 °F 57% 30.04 in 10.0 mi NNW 5.8 mph - N/A   Overcast
10:15 PM 35.6 °F 30.7 °F 20.7 °F 55% 30.04 in 10.0 mi NNW 5.8 mph - N/A   Overcast
10:35 PM 35.2 °F 27.6 °F 19.2 °F 52% 30.04 in 10.0 mi NNW 10.4 mph - N/A   Overcast
10:55 PM 34.7 °F 26.9 °F 18.7 °F 52% 30.04 in 10.0 mi NNW 10.4 mph - N/A   Overcast
11:15 PM 34.2 °F 26.8 °F 17.8 °F 51% 30.05 in 10.0 mi North 9.2 mph - N/A   Overcast
11:35 PM 33.8 °F 26.4 °F 18.0 °F 52% 30.04 in 10.0 mi NNW 9.2 mph - N/A   Overcast
11:55 PM 33.4 °F 25.4 °F 15.3 °F 47% 30.04 in 10.0 mi NNW 10.4 mph 16.1 mph N/A   Overcast